| time (UTC) | temp F | wind direction | speed MPH | gust MPH | rain 1hr in | rain 24hr in | rain mn in | humidity % | barometer mb |
| 20260502234634 | 65 | 316 | 4.0 | 10.0 | 0.00 | 0.00 | 0.00 | 25 | 1016.1 |
| 20260502233621 | 65 | 341 | 5.0 | 12.0 | 0.00 | 0.00 | 0.00 | 23 | 1016.2 |
| 20260502232630 | 65 | 294 | 5.0 | 11.0 | 0.00 | 0.00 | 0.00 | 22 | 1016.3 |
| 20260502231621 | 65 | 311 | 4.0 | 13.0 | 0.00 | 0.00 | 0.00 | 23 | 1016.4 |
| 20260502230650 | 64 | 286 | 6.0 | 14.0 | 0.00 | 0.00 | 0.00 | 25 | 1016.4 |
| 20260502225629 | 65 | 285 | 9.0 | 12.0 | 0.00 | 0.00 | 0.00 | 24 | 1016.5 |
| 20260502224616 | 66 | 301 | 8.0 | 11.0 | 0.00 | 0.00 | 0.00 | 23 | 1016.5 |
| 20260502223622 | 66 | 294 | 9.0 | 13.0 | 0.00 | 0.00 | 0.00 | 23 | 1016.5 |
| 20260502222614 | 66 | 304 | 9.0 | 14.0 | 0.00 | 0.00 | 0.00 | 24 | 1016.5 |
| 20260502221621 | 66 | 269 | 11.0 | 15.0 | 0.00 | 0.00 | 0.00 | 25 | 1016.7 |
| 20260502220629 | 65 | 300 | 9.0 | 13.0 | 0.00 | 0.00 | 0.00 | 25 | 1016.9 |
| 20260502215632 | 64 | 309 | 8.0 | 12.0 | 0.00 | 0.00 | 0.00 | 29 | 1017.1 |
| 20260502214646 | 65 | 309 | 7.0 | 11.0 | 0.00 | 0.00 | 0.00 | 28 | 1017.2 |
| 20260502213616 | 65 | 293 | 8.0 | 13.0 | 0.00 | 0.00 | 0.00 | 27 | 1017.2 |
| 20260502212626 | 66 | 315 | 5.0 | 11.0 | 0.00 | 0.00 | 0.00 | 21 | 1017.3 |
| 20260502211636 | 66 | 292 | 5.0 | 11.0 | 0.00 | 0.00 | 0.00 | 23 | 1017.5 |
| 20260502210630 | 65 | 322 | 6.0 | 11.0 | 0.00 | 0.00 | 0.00 | 28 | 1017.7 |
| 20260502205632 | 65 | 317 | 6.0 | 9.0 | 0.00 | 0.00 | 0.00 | 36 | 1017.7 |
| 20260502204619 | 64 | 344 | 5.0 | 10.0 | 0.00 | 0.00 | 0.00 | 33 | 1017.8 |
| 20260502203626 | 62 | 296 | 6.0 | 11.0 | 0.00 | 0.00 | 0.00 | 40 | 1017.8 |
| 20260502202617 | 61 | 305 | 6.0 | 11.0 | 0.00 | 0.00 | 0.00 | 43 | 1018.0 |
| 20260502201644 | 60 | 317 | 4.0 | 10.0 | 0.00 | 0.00 | 0.00 | 46 | 1018.1 |
| 20260502200630 | 60 | 298 | 6.0 | 12.0 | 0.00 | 0.00 | 0.00 | 48 | 1018.2 |
| 20260502195629 | 62 | 304 | 6.0 | 10.0 | 0.00 | 0.00 | 0.00 | 42 | 1018.2 |
| 20260502194622 | 63 | 281 | 6.0 | 9.0 | 0.00 | 0.00 | 0.00 | 42 | 1018.3 |
| 20260502193613 | 63 | 292 | 4.0 | 8.0 | 0.00 | 0.00 | 0.00 | 38 | 1018.4 |
| 20260502192621 | 61 | 296 | 5.0 | 8.0 | 0.00 | 0.00 | 0.00 | 42 | 1018.5 |
| 20260502191627 | 60 | 304 | 4.0 | 10.0 | 0.00 | 0.00 | 0.00 | 40 | 1018.8 |
| 20260502190620 | 60 | 274 | 6.0 | 9.0 | 0.00 | 0.00 | 0.00 | 41 | 1018.9 |
| 20260502185644 | 59 | 308 | 5.0 | 9.0 | 0.00 | 0.00 | 0.00 | 43 | 1019.1 |
| 20260502184612 | 58 | 309 | 6.0 | 9.0 | 0.00 | 0.00 | 0.00 | 42 | 1019.3 |
| 20260502183623 | 58 | 330 | 5.0 | 9.0 | 0.00 | 0.00 | 0.00 | 41 | 1019.4 |
| 20260502182616 | 57 | 348 | 4.0 | 10.0 | 0.00 | 0.00 | 0.00 | 47 | 1019.6 |
| 20260502181625 | 56 | 318 | 5.0 | 9.0 | 0.00 | 0.00 | 0.00 | 50 | 1019.6 |
| 20260502180623 | 56 | 296 | 4.0 | 10.0 | 0.00 | 0.00 | 0.00 | 50 | 1019.8 |
| 20260502163617 | 53 | 329 | 5.0 | 8.0 | 0.00 | 0.00 | 0.00 | 41 | 1020.2 |
| 20260502162624 | 52 | 290 | 4.0 | 8.0 | 0.00 | 0.00 | 0.00 | 45 | 1020.4 |
| 20260502161614 | 52 | 287 | 4.0 | 8.0 | 0.00 | 0.00 | 0.00 | 45 | 1020.4 |
| 20260502160644 | 52 | 293 | 4.0 | 6.0 | 0.00 | 0.00 | 0.00 | 44 | 1020.3 |
| 20260502151637 | 50 | 303 | 1.0 | 3.0 | 0.00 | 0.00 | 0.00 | 43 | 1020.7 |
| 20260502150626 | 49 | 303 | 0.0 | 2.0 | 0.00 | 0.00 | 0.00 | 46 | 1020.7 |
| 20260502130614 | 41 | 297 | 2.0 | 9.0 | 0.00 | 0.00 | 0.00 | 47 | 1020.4 |
| 20260502123613 | 40 | 134 | 5.0 | 8.0 | 0.00 | 0.00 | 0.00 | 45 | 1020.3 |
| 20260502122622 | 40 | 121 | 4.0 | 8.0 | 0.00 | 0.00 | 0.00 | 47 | 1020.3 |
| 20260502121629 | 40 | 111 | 4.0 | 9.0 | 0.00 | 0.00 | 0.00 | 46 | 1020.3 |
| 20260502120620 | 40 | 128 | 6.0 | 9.0 | 0.00 | 0.00 | 0.00 | 46 | 1020.2 |
| 20260502115622 | 39 | 118 | 5.0 | 10.0 | 0.00 | 0.00 | 0.00 | 47 | 1020.3 |
| 20260502114630 | 39 | 96 | 7.0 | 10.0 | 0.00 | 0.00 | 0.00 | 47 | 1020.3 |
| 20260502113617 | 39 | 109 | 8.0 | 10.0 | 0.00 | 0.00 | 0.00 | 47 | 1020.3 |
| 20260502112629 | 39 | 114 | 6.0 | 9.0 | 0.00 | 0.00 | 0.00 | 48 | 1020.3 |
| 20260502111618 | 40 | 114 | 5.0 | 9.0 | 0.00 | 0.00 | 0.00 | 48 | 1020.3 |
| 20260502110626 | 40 | 118 | 6.0 | 9.0 | 0.00 | 0.00 | 0.00 | 46 | 1020.4 |
| 20260502105628 | 40 | 128 | 6.0 | 10.0 | 0.00 | 0.00 | 0.00 | 46 | 1020.3 |
| 20260502104622 | 40 | 120 | 6.0 | 9.0 | 0.00 | 0.00 | 0.00 | 47 | 1020.3 |
| 20260502103631 | 41 | 130 | 7.0 | 10.0 | 0.00 | 0.00 | 0.00 | 46 | 1020.3 |
| 20260502102622 | 41 | 123 | 5.0 | 8.0 | 0.00 | 0.00 | 0.00 | 46 | 1020.2 |
| 20260502100627 | 42 | 111 | 3.0 | 7.0 | 0.00 | 0.00 | 0.00 | 45 | 1020.2 |
| 20260502090628 | 42 | 126 | 7.0 | 10.0 | 0.00 | 0.00 | 0.00 | 44 | 1020.0 |
| 20260502070624 | 42 | 300 | 3.0 | 4.0 | 0.00 | 0.00 | 0.00 | 48 | 1020.4 |
| 20260502065625 | 42 | 298 | 0.0 | 2.0 | 0.00 | 0.00 | 0.00 | 47 | 1020.3 |
| 20260502064620 | 43 | 298 | 1.0 | 4.0 | 0.00 | 0.00 | 0.00 | 46 | 1020.3 |
| 20260502063629 | 45 | 299 | 1.0 | 9.0 | 0.00 | 0.00 | 0.00 | 42 | 1020.0 |
| 20260502062620 | 45 | 132 | 6.0 | 10.0 | 0.00 | 0.00 | 0.00 | 40 | 1019.8 |
| 20260502061630 | 45 | 113 | 6.0 | 9.0 | 0.00 | 0.00 | 0.00 | 40 | 1019.7 |
| 20260502060628 | 46 | 120 | 3.0 | 10.0 | 0.00 | 0.00 | 0.00 | 39 | 1019.8 |
| 20260502055631 | 46 | 110 | 8.0 | 11.0 | 0.00 | 0.00 | 0.00 | 38 | 1019.6 |
| 20260502054620 | 46 | 132 | 7.0 | 10.0 | 0.00 | 0.00 | 0.00 | 38 | 1019.5 |
| 20260502053628 | 46 | 117 | 8.0 | 10.0 | 0.00 | 0.00 | 0.00 | 38 | 1019.5 |
| 20260502052618 | 46 | 126 | 9.0 | 11.0 | 0.00 | 0.00 | 0.00 | 38 | 1019.5 |
| 20260502051649 | 46 | 110 | 9.0 | 12.0 | 0.00 | 0.00 | 0.00 | 39 | 1019.5 |
| 20260502050617 | 46 | 118 | 7.0 | 11.0 | 0.00 | 0.00 | 0.00 | 39 | 1019.6 |
| 20260502045613 | 46 | 134 | 5.0 | 11.0 | 0.00 | 0.00 | 0.00 | 39 | 1019.6 |
| 20260502044640 | 45 | 131 | 8.0 | 10.0 | 0.00 | 0.00 | 0.00 | 43 | 1019.6 |
| 20260502043613 | 44 | 107 | 0.0 | 3.0 | 0.00 | 0.00 | 0.00 | 48 | 1019.7 |
| 20260502042621 | 44 | 317 | 0.0 | 4.0 | 0.00 | 0.00 | 0.00 | 47 | 1019.7 |
| 20260502041628 | 47 | 319 | 5.0 | 10.0 | 0.00 | 0.00 | 0.00 | 43 | 1019.6 |
| 20260502040617 | 48 | 130 | 7.0 | 11.0 | 0.00 | 0.00 | 0.00 | 35 | 1019.2 |
| 20260502035637 | 49 | 107 | 4.0 | 10.0 | 0.00 | 0.00 | 0.00 | 35 | 1019.1 |
| 20260502034627 | 49 | 115 | 9.0 | 12.0 | 0.00 | 0.00 | 0.00 | 35 | 1018.9 |
| 20260502033616 | 49 | 126 | 8.0 | 11.0 | 0.00 | 0.00 | 0.00 | 34 | 1018.9 |
| 20260502032644 | 49 | 111 | 7.0 | 11.0 | 0.00 | 0.00 | 0.00 | 34 | 1018.8 |
| 20260502031630 | 50 | 131 | 8.0 | 11.0 | 0.00 | 0.00 | 0.00 | 33 | 1018.7 |
| 20260502030623 | 50 | 140 | 8.0 | 10.0 | 0.00 | 0.00 | 0.00 | 33 | 1018.6 |
| 20260502025624 | 51 | 133 | 7.0 | 10.0 | 0.00 | 0.00 | 0.00 | 32 | 1018.5 |
| 20260502024651 | 52 | 134 | 8.0 | 9.0 | 0.00 | 0.00 | 0.00 | 32 | 1018.4 |
| 20260502023619 | 52 | 123 | 7.0 | 8.0 | 0.00 | 0.00 | 0.00 | 33 | 1018.3 |
| 20260502022613 | 53 | 128 | 5.0 | 8.0 | 0.00 | 0.00 | 0.00 | 32 | 1018.3 |
| 20260502021621 | 55 | 295 | 3.0 | 4.0 | 0.00 | 0.00 | 0.00 | 32 | 1018.2 |
| 20260502020629 | 57 | 294 | 0.0 | 0.0 | 0.00 | 0.00 | 0.00 | 31 | 1018.2 |
| 20260502015651 | 58 | 295 | 0.0 | 0.0 | 0.00 | 0.00 | 0.00 | 28 | 1018.2 |
| 20260502014624 | 58 | 295 | 0.0 | 0.0 | 0.00 | 0.00 | 0.00 | 25 | 1018.1 |
| 20260502013612 | 59 | 295 | 0.0 | 0.0 | 0.00 | 0.00 | 0.00 | 25 | 1018.0 |
| 20260502012619 | 60 | 295 | 0.0 | 0.0 | 0.00 | 0.00 | 0.00 | 25 | 1018.1 |
| 20260502011629 | 59 | 295 | 0.0 | 3.0 | 0.00 | 0.00 | 0.00 | 28 | 1018.1 |
| 20260502010641 | 59 | 295 | 2.0 | 5.0 | 0.00 | 0.00 | 0.00 | 27 | 1018.1 |
| 20260502005619 | 59 | 293 | 3.0 | 5.0 | 0.00 | 0.00 | 0.00 | 28 | 1018.1 |
| 20260502004646 | 59 | 303 | 3.0 | 8.0 | 0.00 | 0.00 | 0.00 | 27 | 1018.1 |
| 20260502003613 | 59 | 306 | 5.0 | 8.0 | 0.00 | 0.00 | 0.00 | 22 | 1018.1 |
| 20260502002643 | 60 | 302 | 4.0 | 8.0 | 0.00 | 0.00 | 0.00 | 25 | 1018.1 |
| 20260502001613 | 60 | 307 | 3.0 | 7.0 | 0.00 | 0.00 | 0.00 | 23 | 1018.1 |
| 20260502000621 | 60 | 288 | 4.0 | 8.0 | 0.00 | 0.00 | 0.00 | 21 | 1018.1 |
| 20260501235619 | 60 | 299 | 4.0 | 8.0 | 0.00 | 0.00 | 0.00 | 25 | 1018.2 |